User: anonymous   Login
Location: Waldport
(44.4270°N, 124.0680°W)
Time: 16:14:29
(UTC-08:00)
Language:

Cosmos 1570 Rocket - Orbit

View from above orbital plane
View from above orbital plane
View from above satellite
View from above satellite

Ground track
Ground track

The orbit data is extracted from the following two-line orbital elements,

1 15032U 84056B   16336.74947816 +.00000077 +00000-0 +36479-4 0  9996
2 15032 074.0722 077.1343 0018568 288.4616 071.4518 14.34687654698336
Epoch (UTC): 01 December 2016 17:59:14
Eccentricity: 0.0018568
inclination: 74.0722°
perigee height: 763 km
apogee height: 789 km
right ascension of ascending node: 77.1343°
argument of perigee: 288.4616°
revolutions per day: 14.34687654
mean anomaly at epoch: 71.4518°
orbit number at epoch: 69833

The dashed part of the orbit path shows where the satellite is in the earth's shadow,  

DLR